Zurück zum Katalog

OPS 0856 DEB

LostPO
NORAD 27636·DEBRIS·🇺🇸 United States

Gestartet Aug 19, 1966 von Vandenberg Space Force Base

Loading…

Nächste Überflüge (nächste 24 Stunden)

TLE

VeraltetSource: Space-Track

Epoche: Dec 9, 2016, 00:45 UTC

1 27636U 66077AB  16344.03192326  .00000003  00000-0  10000-3 0  9991
2 27636  89.7355  14.9583 1054559  15.3386 347.7499  8.65225237489877

Verfolge OPS 0856 DEB in Echtzeit mit AllMySat

Download on the App Store